カタログに戻る

STARLINK-31160

運用中通信VLEO
NORAD 58749·PAYLOAD·🇺🇸 United States

打ち上げ Jan 7, 2024 から Cape Canaveral Space Force Station

Loading…

次のパス (今後24時間)

TLE

最新Source: CelesTrak SupGP

元期: Sep 14, 2026, 21:25 UTC

1 58749C 24005X   26257.89284722  .00033122  00000+0  11999-2 0  2576
2 58749  42.9998 231.4817 0001384 257.2160 195.7663 15.27555980    16

AllMySatでSTARLINK-31160をリアルタイム追跡

Download on the App Store